ジャック彗星

C/2017 K6 ( Jacques )

English version
Home page
Updated on February 13, 2018

---------------------------------------------------------------------

・ プロフィール

発見日 2017年5月29日
発見光度 17.5等
発見者 Cristovao Jacques (SONEAR Observatory at Oliveira)

・ 写真集

・ 軌道要素

Epoch 2018 Jan. 2.0 TT = JDT 2458120.5
T 2018 Jan. 3.13803 TT                                  MPCW
q   2.0027547            (2000.0)            P               Q
z  +0.0008939      Peri.  303.83907     +0.49565848     -0.22851133
 +/-0.0000015      Node    85.05435     +0.75134752     +0.59675691
e   0.9982098      Incl.   57.25100     -0.43565994     +0.76919683
From 223 observations 2017 May 29-2018 Jan. 25, mean residual 0".5.

・ 星図

・ 光度変化

        m1 = 9.0 + 5 logΔ + 12.5 log r

---------------------------------------------------------------------

軌道要素はM.P.E.C. 2018-B155に掲載されたものです。
星図はステラナビゲータ Ver.10 (アストロアーツ) で作成したものです。
光度グラフはComet for Windowsで作成したものです。

---------------------------------------------------------------------

Copyright(C) Seiichi Yoshida (comet@aerith.net). All rights reserved.